Regional Weather Roundup
Issued by NWS Mobile, AL

Home | Current Version | Previous Version | Text Only | Print | Product List | Glossary On
Versions: 1 2 3 4 5 6 7 8 9 10 11 12 13 14 15 16 17 18 19 20 21 22 23 24 25 26 27 28 29 30 31 32 33 34 35 36 37 38 39 40 41 42 43 44 45 46 47 48 49 50
891
ASUS44 KMOB 260612
RWRMOB
REGIONAL WEATHER ROUNDUP
NATIONAL WEATHER SERVICE MOBILE AL
1200 AM CST SUN FEB 26 2017

NOTE: "FAIR" INDICATES FEW OR NO CLOUDS BELOW 12,000 FEET WITH NO
      SIGNIFICANT WEATHER AND/OR OBSTRUCTIONS TO VISIBILITY.

  * THESE STATIONS ARE PART OF THE UNIVERSITY OF SOUTH ALABAMA
    MESONET AND ARE NOT UNDER NWS OR FAA QUALITY CONTROL.

ALZ061>064-260700-
COASTAL ALABAMA

CITY           SKY/WX    TMP DP  RH WIND       PRES   REMARKS
MOBILE REG APT CLEAR     48  28  46 N8        30.13F
6HR MIN TEMP:  48; 6HR MAX TEMP:  62;

BROOKLEY FIELD CLEAR     52  30  43 N6        30.14S
6HR MIN TEMP:  51; 6HR MAX TEMP:  64;

USA CAMPUS*      N/A     46  32  57 CALM      30.13S
DOG RIVER*       N/A     52  30  43 N5        30.91F


CITY           SKY/WX    TMP DP  RH WIND       PRES   REMARKS
GULF SHORES    CLEAR     51  32  48 N8        30.12S

$$

ALZ051>060-260700-
INTERIOR SOUTHWEST AND SOUTH CENTRAL ALABAMA

CITY           SKY/WX    TMP DP  RH WIND       PRES   REMARKS
GREENVILLE     CLEAR     41  30  65 N5        30.13R
6HR MIN TEMP:  41; 6HR MAX TEMP:  57;

EVERGREEN      CLEAR     41  30  65 N5        30.14S
6HR MIN TEMP:  41; 6HR MAX TEMP:  60;

ATMORE*          N/A     45  32  61 N10       30.15R
ANDALUSIA/OPP  CLEAR     48  27  44 N5        30.13R
6HR MIN TEMP:  48; 6HR MAX TEMP:  63;

ANDALUSIA*       N/A     45  28  53 NE3       30.11S
FLORALA APT    CLEAR     44  31  60 CALM      30.13S
6HR MIN TEMP:  43; 6HR MAX TEMP:  62;

FLORALA*         N/A     46  28  49 NW3       30.87S

$$

FLZ001>006-260700-
WESTERN FLORIDA PANHANDLE

CITY           SKY/WX    TMP DP  RH WIND       PRES   REMARKS
PENSACOLA      CLEAR     53  30  41 N10       30.11S
6HR MIN TEMP:  53; 6HR MAX TEMP:  67;

NAS PENSACOLA  CLEAR     52  30  43 N8        30.11S
6HR MIN TEMP:  52; 6HR MAX TEMP:  65;

MILTON         LGT RAIN  47  27  45 N6        30.12S
6HR MIN TEMP:  47; 6HR MAX TEMP:  62; 6HR PCP: TRACE;

WHTNG S FIELD  PTCLDY    51  29  42 N6        30.12S
6HR MIN TEMP:  51; 6HR MAX TEMP:  67;



CITY           SKY/WX    TMP DP  RH WIND       PRES   REMARKS
JAY*             N/A     46  28  49 N6        30.13S
DUKE FIELD     CLEAR     49  24  36 N6        30.10S
CRESTVIEW      PTCLDY    48  25  40 N3        30.13R
6HR MIN TEMP:  48; 6HR MAX TEMP:  66;

VALPARAISO     CLEAR     51  24  34 N12       30.11R
6HR MIN TEMP:  51; 6HR MAX TEMP:  67;

DESTIN         CLEAR     57  28  33 N13       30.11R
6HR MIN TEMP:  57; 6HR MAX TEMP:  72;


$$

MSZ076-079-260700-
INTERIOR SOUTHEAST MISSISSIPPI

CITY           SKY/WX    TMP DP  RH WIND       PRES   REMARKS
LEAKESVILLE*   NOT AVBL
AGRICOLA*        N/A     46  28  49 N6        30.12F

$$

MARINE OBSERVATIONS

STATION/POSITION TIME  TEMP    WIND        PRES    WAVE
                       AIR SEA DIR/SP/G            HT/PER
                 (UTC) (F)     (DEG/KT/KT) (MB)    (FT/S)
PASCAGOULA       0548   54      10/ 10/ 13 1019.8S
PETIT BOIS ISLND 0548   55      20/ 19/ 23 1020.3F
GRAND BAY        0430   52     360/  6     1021.0R
KATRINA CUT      0530           20/ 18     1019.6R
CEDAR POINT      0530   55      20/ 11     1019.3S
E DAUPHIN ISLAND 0500   59      10/ 22/ 25 1019.7R
MIDDLE BAY LIGHT 0500   58     360/ 23     1019.6
USCG MOBILE BAY  0548   52 65  360/  7/  9 1020.7F
STATE DOCKS      0542   53 63              1020.1F
MEAHER PARK      0530   53     340/  6     1020.3R
WEEKS BAY        0445   54                   N/A
FORT MORGAN      0548   58      20/ 20/ 23   N/A
12 S ORANGE BCH  0550   59 68   20/ 21/ 25 1019.2R   3/ 4
PENSACOLA BAY    0542   54 68  360/  5/  8 1019.9R
67 S FORT MORGAN 0530   65      20/ 14     1018.6R

$$

SELECTED LOCATIONS ACROSS THE REGION

CITY           SKY/WX    TMP DP  RH WIND       PRES   REMARKS
NEW ORLEANS    CLEAR     56  37  49 NE8       30.12S
GULFPORT       CLEAR     50  31  48 N7        30.12F
PASCAGOULA AP  CLEAR     46  31  55 N6        30.13S
PASCAGOULA*    NOT AVBL
HATTIESBURG    CLEAR     44  28  53 CALM      30.15S
LAUREL         CLEAR     39  27  60 N5        30.16S
MERIDIAN       CLEAR     36  31  82 NW5       30.16S
JACKSON        CLEAR     40  28  62 NE8       30.15F
MONTGOMERY     CLEAR     46  24  42 NW3       30.15R
TROY           CLEAR     44  28  53 NW5       30.13S
ASHFORD*         N/A     45  28  53 NE3       30.11S
DOTHAN         CLEAR     48  30  49 N8        30.14R
PANAMA CITY    CLEAR     52  30  43 NW9       30.09R

$$





USA.gov is the U.S. government's official web portal to all federal, state and local government web resources and services.